Location: Capannuccia
(43.7000°N, 11.3000°E)
Time: 02:44:02
(UTC+00:00)

SL-16 R/B - Pass Details

Date: 07 June 2020
Orbit: 842 x 846 km, 71.0° (Epoch: 05 July)

Event Time Altitude Azimuth Distance (km) Brightness Sun altitude
Exits shadow 02:04:43 16° 240° (WSW) 2,073 3.7 -12.8°
Maximum altitude 02:08:51 40° 303° (WNW) 1,237 3.0 -12.3°
Drops below altitude 10° 02:14:10 10° 12° (NNE) 2,475 5.6 -11.7°
Sets 02:16:47 0° 20° (NNE) 3,415 6.8 -11.4°
